COSMOS 249 DEB, 18549

Orbit data source: Space-Track

COSMOS 249 DEB, 18549 is space debris in LEO originally from a launch on Sun, 20 Oct 1968 UTC launched from the Tyuratam Missile And Space Complex (TTMTR). Debris objects in space refer to the collection of defunct objects orbiting the Earth. Examples of debris include non-operational satellites, rocket bodies, and fragments generated from explosions, collisions, or faulty payload assembly.

Loading next visibility...
Identifier
18549, 1968-091DE
Orbit
LEO
Country
Flag of CISCIS
Related business
Manufacturer
Unknown
Mission
Spacecraft
Bus & Motor
Unknown
Mass
Unknown
Launch date (UTC)
1968-10-20 (57 years ago)
Launch vehicle
Unknown
Launch site
Tyuratam Missile And Space Complex (TTMTR)
Object type
Payload
Rocket body
Debris
Shape & HBR
Unknown shape, 0.1 m
Radar Cross Section
Small (<0.1 m²)

Expand to show TLE details & history
Last TLE update: 5 days ago

TLE from 5 days ago
0 COSMOS 249 DEB
1 18549U 68091DE  26031.23135457  .00003106  00000-0  37950-2 0  9999
2 18549  62.2301 121.4763 0644987 246.7995 134.6530 13.02305423611639
Epoch: 2026-01-31T05:33Z
TLE epoch observation values (Epoch: 2026-01-31T05:33:09.034Z)
Latitude
23.22152°
Longitude
-79.27598°
Altitude
1,615.577 km
Speed
6.896 km/s
True Right ascension
08h 57m 52s
True Declination
23° 06' 38"
Sunlit
Object was in full shadow at epoch
Visualization orbit readout
Latitude
Unknown
Longitude
Unknown
Altitude
Unknown
Speed
Unknown
Apparent Right ascension
Unknown
Apparent Declination
Unknown
Sunlit
N/A
Visualization observer readout
Local Sidereal Time
16:56:33
Azimuth
Unknown
Elevation
Unknown
Doppler factor
Unknown
Orbital elements
Apogee altitude
1,744.201 km
Perigee altitude
759.925 km
Semi-major axis
7,630.2 km
Eccentricity
0.0645
Inclination
62.2301°
RAAN
121.4763°
Arg. of periapsis
246.7995°
True anomaly
139.6221°
Mean anomaly
134.653°
Eccentric anomaly
137.16551°
Mean motion
3.25641 °/min
Orbital period
110.55 mins
BSTAR
0.003795
Loading maneuver chart data...
Computing Atmospheric mass density...
Loading historical data...
Loading historical data...
Loading historical data...
Loading historical data...
Loading historical data...
Loading historical data...
Loading historical data...

Documentation

Showing up to 5 results
|